Current weather by "City, St" or "zip code"  
 
Advertise Here

Current Conditions: Coeur dAlene Airport - Pappy Boyington Field, ID

Fair


34.0 F

Last Updated on Jan 20 2021, 10:56 am PST
Humidity: 76%
Wind Speed: NE 8.1 mph
Barometer 30.13 in
Dewpoint: 27.0 F
Visibility: 10.00 mi
Precip: --
Heat Index: NA
Wind Chill: 27 F
Current conditions at:

Coeur dAlene Airport - Pappy Boyington Field, ID (KCOE)

Lat: 47.76667 Lon: 116.81667

Local Radar Image active severe weather and emergency alerts image image weather storm and storm spotter reports image weather observation monitoring service image
Local
Radar
Active
Alerts
Storm Reports Obs
Monitoring

Sign-up For Email & Text Message Weather Alert Notification Services


Advertise Here

Observation History for Coeur dAlene Airport - Pappy Boyington Field, ID


Time Wind
(mph)
Vis
(mi)
Weather Precip (in) Temperature (F) Relative
Humidity
Wind
Chill
(F)
Heat
Index
(F)
Pressure
Air Dwpt altimeter
(in)
sea level
(mb)
Rmks
10:56 am PST NE 8.1 10.00 Fair -- 34.0 27.0 76% 27 NA 30.13 1024.3
9:56 am PST NE 9.2 10.00 Mostly Cloudy -- 33.0 28.0 82% 25 NA 30.15 1024.8
8:56 am PST NE 8.1 10.00 Overcast -- 30.0 28.0 92% 22 NA 30.14 1024.8
7:56 am PST NE 3.5 10.00 Overcast -- 29.0 27.0 92% NA NA 30.14 1024.7
6:56 am PST N 3.5 10.00 Overcast -- 28.0 27.0 96% NA NA 30.14 1025.0
5:56 am PST NE 3.5 10.00 Overcast -- 28.0 26.1 92% NA NA 30.14 1025.0
4:56 am PST NE 3.5 10.00 Overcast -- 27.0 25.0 92% NA NA 30.15 1025.4
3:56 am PST NE 4.6 10.00 Overcast -- 27.0 25.0 92% 22 NA 30.16 1025.5
2:56 am PST NE 3.5 10.00 Mostly Cloudy -- 25.0 23.0 92% NA NA 30.17 1026.0
1:56 am PST NE 3.5 10.00 Fair -- 26.0 23.0 88% NA NA 30.19 1026.4
12:56 am PST S 6.9 10.00 Fair -- 27.0 25.0 92% 20 NA 30.19 1026.5
11:56 pm PST N 0.0 10.00 Fair -- 28.0 26.1 92% NA NA 30.21 1027.1
10:56 pm PST S 3.5 10.00 Mostly Cloudy -- 30.0 26.1 85% NA NA 30.22 1027.7
9:56 pm PST S 4.6 10.00 Overcast -- 31.0 27.0 85% 26 NA 30.24 1028.1
8:56 pm PST S 5.8 10.00 A Few Clouds -- 32.0 28.0 85% 26 NA 30.24 1028.1
7:56 pm PST S 3.5 10.00 Fair -- 30.0 27.0 88% NA NA 30.25 1028.8
6:56 pm PST S 4.6 10.00 Fair -- 30.0 28.0 92% 25 NA 30.28 1029.6
5:56 pm PST N 0.0 10.00 Fair -- 31.0 28.0 89% NA NA 30.32 1031.1
4:56 pm PST N 0.0 10.00 Mostly Cloudy -- 31.0 28.0 89% NA NA 30.33 1031.6
3:56 pm PST SW 4.6 10.00 A Few Clouds -- 32.0 28.0 85% 27 NA 30.34 1031.7
2:56 pm PST W 4.6 10.00 Mostly Cloudy -- 34.0 28.0 79% 30 NA 30.36 1032.4
1:56 pm PST W 5.8 10.00 Overcast -- 36.0 28.0 73% 31 NA 30.39 1033.3
12:56 pm PST S 5.8 10.00 A Few Clouds -- 35.0 27.0 72% 30 NA 30.41 1034.4
11:56 am PST S 6.9 10.00 Fair -- 33.0 26.1 75% 27 NA 30.44 1035.2

Regional Weather Observation


Coeur dAlene Airport - Pappy Boyington Field, ID (KCOE)

Fair
34.0 F

Spokane, Felts Field, WA (KSFF)

Fair
33.0 F

Spokane, Spokane International Airport, WA (KGEG)

Mostly Cloudy
30.0 F

Sandpoint, Sandpoint Airport, ID (KSZT)

Fair
32.0 F

Fairchild Air Force Base, WA (KSKA)

Fair
30.0 F

Boundary County Airport, ID (K65S)

Fair
32.0 F